Location: Newport
(44.6370°N, 124.0520°W)
Time: 19:15:05
(UTC-07:00)

N. Korean satellite - Pass Details

Date: 11 October 2017
Orbit: 459 x 517 km, 97.2° (Epoch: 23 October)

Event Time Altitude Azimuth Distance (km) Brightness Sun altitude
Rises 19:08:41 0° 163° (SSE) 2,560 10.1 -6.3°
Reaches altitude 10° 19:10:45 10° 162° (SSE) 1,674 9.1 -6.6°
Maximum altitude 19:14:21 76° 76° (ENE) 502 6.5 -7.3°
Drops below altitude 10° 19:17:54 10° 351° (N) 1,655 9.4 -7.9°
Sets 19:19:57 0° 350° (N) 2,530 10.3 -8.3°
